Regional Weather Roundup
Issued by NWS

Home | Current Version | Previous Version | Text Only | Print | Product List | Glossary On
Versions: 1 2 3 4 5 6 7 8 9 10 11 12 13 14 15 16 17 18 19 20 21 22 23 24 25 26 27 28 29 30 31 32 33 34 35 36 37 38 39 40 41 42 43 44 45 46 47
000
ASUS42 KFFC 301303
RWRGA
WEATHER ROUNDUP FOR GEORGIA
NATIONAL WEATHER SERVICE PEACHTREE CITY GA
900 AM EDT TUE JUN 30 2015

NOTE: "FAIR" INDICATES FEW OR NO CLOUDS BELOW 12,000 FEET WITH NO
SIGNIFICANT WEATHER AND/OR OBSTRUCTIONS TO VISIBILITY.

* = USE WITH CAUTION. THE STATIONS MARKED WITH AN ASTERISK MAY NOT
REPORT WEATHER SUCH AS PRECIPITATION, FOG, OR THUNDER AND ARE NOT
QUALITY CONTROLLED BY NWS.

THE REMARK "TC" DENOTES TEMPERATURE READING IN DEGREES CELSIUS.

GAZ001>058-301400-
NORTH GEORGIA

CITY           SKY/WX    TMP DP  RH WIND       PRES   REMARKS
ATLANTA        PTSUNNY   77  70  79 W7        30.02R
ATHENS         SUNNY     76  67  73 VRB3      30.01R
CHAMBLEE       SUNNY     76  69  79 W9        30.03R HAZE
PEACHTREE CITY CLOUDY    74  70  87 VRB5      30.03R
ROME           MOSUNNY   75  69  81 VRB5      29.99R
WEST ATLANTA   PTSUNNY   73  68  84 SW7       30.02R
GAINESVILLE    SUNNY     76  67  73 W12       30.04R
CARTERSVILLE   MOSUNNY   77  70  79 CALM      30.01R


CITY           SKY/WX    TMP DP  RH WIND       PRES   REMARKS
DALTON*        MOSUNNY   73  68  83 SE3       30.00R
LAWRENCEVILLE* SUNNY     75  64  69 W8        30.00R
MARIETTA       CLOUDY    76  71  83 SW8       30.03R
BLAIRSVILLE*     N/A     71  58  63 N14G22    30.09R
$$

GAZ059>098-102>109-301400-
CENTRAL GEORGIA

CITY           SKY/WX    TMP DP  RH WIND       PRES   REMARKS
AUGUSTA-BUSH   SUNNY     79  68  69 CALM      30.00S
AUGUSTA-DANIEL SUNNY     79  67  66 VRB5      30.02S
COLUMBUS       MOSUNNY   75  70  83 SW6       30.02S
MACON          SUNNY     78  71  79 W10       30.02R
ROBINS AFB     SUNNY     78  71  78 W8        30.01S


CITY           SKY/WX    TMP DP  RH WIND       PRES   REMARKS
LAGRANGE*      CLOUDY    79  78  95 W3        30.02S
SYLVANIA*      SUNNY     80  74  81 W3        30.04S
MILLEDGEVILLE* SUNNY     77  70  78 CALM      30.00F
$$

GAZ099>101-110>166-301400-
SOUTH GEORGIA

CITY           SKY/WX    TMP DP  RH WIND       PRES   REMARKS
SAVANNAH       PTSUNNY   79  70  74 W7        30.04R
VALDOSTA       PTSUNNY   77  75  93 VRB5      30.08R
ALMA           SUNNY     78  73  84 W6        30.06S
ST SIMONS      SUNNY     78  73  84 SW9       30.07R
FT STEWART     SUNNY     80  72  76 W7        30.03R
ALBANY         MOSUNNY   79  74  84 SW8       30.06F
HUNTER AFB     SUNNY     80  74  81 W7        30.03R
MOODY AFB      MOSUNNY   81  73  78 W8        30.05F
BRUNSWICK      SUNNY     77  72  83 W8        30.07R


CITY           SKY/WX    TMP DP  RH WIND       PRES   REMARKS
BAINBRIDGE*    MOSUNNY   79  77  94 CALM      30.05S
MOULTRIE*      PTSUNNY   77  73  88 W7        30.07S FOG
VIDALIA*       SUNNY     79  72  78 SW7       30.04F
WAYCROSS*      SUNNY     82  77  86 W8        30.07R
DOUGLAS*       SUNNY     81  73  78 W7        30.07S
$$


USA.gov is the U.S. government's official web portal to all federal, state and local government web resources and services.